Location: Demmingen
(48.6757°N, 10.4375°E)
Time: 20:50:30
(UTC+00:00)

Helios 1A Rocket - Pass Details

Date: 23 May 2024
Orbit: 521 x 544 km, 98.3° (Epoch: 14 June)

Event Time Altitude Azimuth Distance (km) Brightness Sun altitude
Exits shadow 00:09:00 44° 143° (SE) 747 3.2 -19.6°
Maximum altitude 00:10:06 71° 74° (ENE) 570 2.9 -19.6°
Drops below altitude 10° 00:13:57 10° 350° (N) 1,794 6.4 -19.4°
Sets 00:16:04 0° 348° (NNW) 2,685 7.4 -19.4°
